RYR85RT EGSS-LEMD

Flight info

Callsign RYR85RT
Flight time N/A
Altitude 32000
Route NUGBO M183 SILVA Q41 SAM M195 MARUK N621 LELNA DCT NOVAN DCT DELOG N864 NONTU
Aircraft B738/M-SDE3FGILRWY/SB1

Departure

Time N/A
Airport London Stansted Airport (EGSS)

Arrival

Time 2026-05-07 19:45
Airport Adolfo Suárez Madrid–Barajas Airport (LEMD)
Time Latitude Longitude Altitude Speed Heading
2026-05-07 18:15 47.60468 -3.16777 37987 ft 432 kts 198°
2026-05-07 18:15 47.57571 -3.18007 37986 ft 433 kts 198°
2026-05-07 18:16 47.51785 -3.20459 37980 ft 433 kts 198°
2026-05-07 18:16 47.45996 -3.22907 37981 ft 433 kts 198°
2026-05-07 18:17 47.40203 -3.25355 37978 ft 433 kts 198°
2026-05-07 18:17 47.34405 -3.27796 37979 ft 433 kts 198°
2026-05-07 18:18 47.28601 -3.30232 37981 ft 433 kts 198°
2026-05-07 18:18 47.22788 -3.32667 37977 ft 434 kts 198°
2026-05-07 18:19 47.16974 -3.35098 37980 ft 434 kts 198°
2026-05-07 18:19 47.11161 -3.37523 37970 ft 435 kts 198°
2026-05-07 18:20 47.05380 -3.39928 37980 ft 435 kts 198°
2026-05-07 18:20 46.99556 -3.42346 37978 ft 435 kts 198°
2026-05-07 18:21 46.93722 -3.44762 37979 ft 436 kts 198°
2026-05-07 18:21 46.87888 -3.47172 37970 ft 436 kts 198°
2026-05-07 18:22 46.82053 -3.49579 37976 ft 436 kts 198°
2026-05-07 18:22 46.76208 -3.51981 37976 ft 436 kts 198°
2026-05-07 18:23 46.70365 -3.54380 37978 ft 436 kts 198°
2026-05-07 18:23 46.64512 -3.56776 37975 ft 437 kts 198°
2026-05-07 18:24 46.58664 -3.59165 37973 ft 437 kts 198°
2026-05-07 18:24 46.52812 -3.61550 37972 ft 437 kts 198°
2026-05-07 18:25 46.46968 -3.63926 37948 ft 432 kts 198°
2026-05-07 18:25 46.44112 -3.65082 37948 ft 421 kts 198°
2026-05-07 18:25 46.41308 -3.66217 37960 ft 417 kts 198°
2026-05-07 18:26 46.35772 -3.68460 37971 ft 414 kts 198°
2026-05-07 18:26 46.30171 -3.70367 37950 ft 415 kts 189°
2026-05-07 18:27 46.24436 -3.71210 37965 ft 414 kts 188°
2026-05-07 18:27 46.18699 -3.71990 37968 ft 414 kts 188°
2026-05-07 18:28 46.12961 -3.72809 37972 ft 415 kts 188°
2026-05-07 18:28 46.07206 -3.73658 37967 ft 416 kts 188°
2026-05-07 18:29 46.01430 -3.74515 37964 ft 418 kts 188°
2026-05-07 18:29 45.95629 -3.75377 37969 ft 420 kts 188°
2026-05-07 18:30 45.89808 -3.76240 37948 ft 421 kts 188°
2026-05-07 18:30 45.83969 -3.77104 37961 ft 422 kts 188°
2026-05-07 18:31 45.78114 -3.77967 37954 ft 423 kts 188°
2026-05-07 18:31 45.72255 -3.78830 37956 ft 423 kts 188°
2026-05-07 18:32 45.67381 -3.79546 37944 ft 423 kts 188°
2026-05-07 18:32 45.61524 -3.80403 37949 ft 422 kts 188°
2026-05-07 18:33 45.55683 -3.81258 37949 ft 421 kts 188°
2026-05-07 18:33 45.49851 -3.82109 37934 ft 420 kts 188°
2026-05-07 18:34 45.44043 -3.82955 37940 ft 419 kts 188°
2026-05-07 18:34 45.38250 -3.83796 37942 ft 418 kts 188°
2026-05-07 18:35 45.32470 -3.84634 37939 ft 417 kts 188°
2026-05-07 18:35 45.26696 -3.85470 37938 ft 416 kts 188°
2026-05-07 18:36 45.20935 -3.86302 37929 ft 416 kts 189°
2026-05-07 18:36 45.15171 -3.87133 37935 ft 416 kts 189°
2026-05-07 18:37 45.09442 -3.87959 37930 ft 416 kts 189°
2026-05-07 18:37 45.03669 -3.88788 37927 ft 417 kts 189°
2026-05-07 18:38 44.97890 -3.89616 37924 ft 418 kts 189°
2026-05-07 18:38 44.92094 -3.90445 37915 ft 419 kts 189°
2026-05-07 18:39 44.86293 -3.91272 37920 ft 419 kts 189°
2026-05-07 18:39 44.80483 -3.92099 37927 ft 420 kts 189°
2026-05-07 18:40 44.74658 -3.92928 37918 ft 421 kts 189°
2026-05-07 18:40 44.68825 -3.93754 37924 ft 421 kts 189°
2026-05-07 18:41 44.62990 -3.94579 37922 ft 421 kts 189°
2026-05-07 18:41 44.57155 -3.95403 37912 ft 421 kts 189°
2026-05-07 18:42 44.51369 -3.96217 37905 ft 420 kts 189°
2026-05-07 18:42 44.45555 -3.97034 37908 ft 420 kts 189°
2026-05-07 18:43 44.39747 -3.97846 37906 ft 419 kts 189°
2026-05-07 18:43 44.33955 -3.98657 37902 ft 418 kts 188°
2026-05-07 18:44 44.28119 -3.98510 37912 ft 420 kts 179°
2026-05-07 18:44 44.22285 -3.97846 37910 ft 420 kts 179°
2026-05-07 18:45 44.16456 -3.97210 37899 ft 420 kts 179°
2026-05-07 18:45 44.10631 -3.96622 37889 ft 419 kts 179°
2026-05-07 18:46 44.04818 -3.96052 37900 ft 419 kts 179°
2026-05-07 18:46 43.99036 -3.95487 37891 ft 419 kts 179°
2026-05-07 18:47 43.93214 -3.94919 37882 ft 419 kts 180°
2026-05-07 18:47 43.87400 -3.94350 37891 ft 419 kts 180°
2026-05-07 18:48 43.81578 -3.93780 37885 ft 420 kts 180°
2026-05-07 18:48 43.75744 -3.93214 37874 ft 420 kts 180°
2026-05-07 18:49 43.69912 -3.92646 37882 ft 420 kts 180°
2026-05-07 18:49 43.64074 -3.92075 37888 ft 421 kts 180°
2026-05-07 18:50 43.58228 -3.91501 37887 ft 421 kts 180°
2026-05-07 18:50 43.52423 -3.90931 37875 ft 421 kts 180°
2026-05-07 18:51 43.46571 -3.90361 37885 ft 421 kts 180°
2026-05-07 18:51 43.40765 -3.90659 37899 ft 416 kts 191°
2026-05-07 18:52 43.35016 -3.91617 37879 ft 416 kts 192°
2026-05-07 18:52 43.29254 -3.92549 37893 ft 417 kts 191°
2026-05-07 18:53 43.23468 -3.93426 37894 ft 419 kts 191°
2026-05-07 18:53 43.17665 -3.94286 37890 ft 420 kts 191°
2026-05-07 18:54 43.11852 -3.95143 37902 ft 420 kts 191°
2026-05-07 18:54 43.06028 -3.96001 37903 ft 421 kts 191°
2026-05-07 18:55 43.00237 -3.96852 37905 ft 422 kts 191°
2026-05-07 18:55 42.94406 -3.97711 37906 ft 422 kts 191°
2026-05-07 18:56 42.88567 -3.98571 37915 ft 422 kts 191°
2026-05-07 18:56 42.82731 -3.99426 37919 ft 422 kts 191°
2026-05-07 18:57 42.76893 -4.00278 37910 ft 422 kts 191°
2026-05-07 18:57 42.71063 -4.01125 37917 ft 421 kts 191°
2026-05-07 18:58 42.65240 -4.01970 37924 ft 421 kts 191°
2026-05-07 18:58 42.59423 -4.02812 37919 ft 420 kts 191°
2026-05-07 18:59 42.53618 -4.03655 37899 ft 419 kts 192°
2026-05-07 18:59 42.47811 -4.04493 37920 ft 418 kts 192°
2026-05-07 19:00 42.42061 -4.05319 37917 ft 418 kts 192°
2026-05-07 19:00 42.36281 -4.06148 37928 ft 418 kts 192°
2026-05-07 19:01 42.30494 -4.06974 37923 ft 418 kts 192°
2026-05-07 19:01 42.24705 -4.07799 37915 ft 418 kts 192°
2026-05-07 19:02 42.18918 -4.08622 37916 ft 419 kts 192°
2026-05-07 19:02 42.13126 -4.09444 37921 ft 419 kts 192°
2026-05-07 19:03 42.07332 -4.10264 37907 ft 419 kts 192°
2026-05-07 19:03 42.01534 -4.11077 37913 ft 419 kts 191°
2026-05-07 19:04 41.95714 -4.11759 37912 ft 420 kts 191°
2026-05-07 19:04 41.89875 -4.12405 37900 ft 421 kts 191°
2026-05-07 19:05 41.84044 -4.13058 37914 ft 420 kts 191°
2026-05-07 19:05 41.78216 -4.13718 37913 ft 421 kts 191°
2026-05-07 19:06 41.72379 -4.14381 37912 ft 421 kts 191°
2026-05-07 19:06 41.63638 -4.15369 37906 ft 420 kts 192°
2026-05-07 19:07 41.57811 -4.16027 37924 ft 423 kts 192°
2026-05-07 19:07 41.51889 -4.16698 37930 ft 431 kts 192°
2026-05-07 19:08 41.45870 -4.17375 37867 ft 435 kts 192°
2026-05-07 19:08 41.42868 -4.17717 37353 ft 443 kts 192°
2026-05-07 19:08 41.39738 -4.18072 36897 ft 447 kts 192°
2026-05-07 19:09 41.36680 -4.18414 36433 ft 448 kts 193°
2026-05-07 19:09 41.33577 -4.18757 35975 ft 447 kts 193°
2026-05-07 19:09 41.30475 -4.19103 35522 ft 447 kts 193°
2026-05-07 19:09 41.27376 -4.19450 35085 ft 447 kts 194°
2026-05-07 19:10 41.24270 -4.19755 34633 ft 448 kts 193°
2026-05-07 19:10 41.21152 -4.19965 34206 ft 449 kts 192°
2026-05-07 19:10 41.18023 -4.20135 33764 ft 450 kts 192°
2026-05-07 19:10 41.14896 -4.20299 33281 ft 450 kts 192°
2026-05-07 19:11 41.11748 -4.20472 32810 ft 455 kts 192°
2026-05-07 19:11 41.08568 -4.20659 32358 ft 461 kts 191°
2026-05-07 19:11 41.05353 -4.20851 31870 ft 464 kts 191°
2026-05-07 19:11 41.02137 -4.21041 31413 ft 462 kts 191°
2026-05-07 19:12 40.98935 -4.21230 30974 ft 461 kts 191°
2026-05-07 19:12 40.95735 -4.21420 30527 ft 460 kts 190°
2026-05-07 19:12 40.92538 -4.21611 30091 ft 459 kts 190°
2026-05-07 19:12 40.89350 -4.21804 29609 ft 459 kts 190°
2026-05-07 19:13 40.86153 -4.22000 29116 ft 463 kts 189°
2026-05-07 19:13 40.82925 -4.22199 28621 ft 467 kts 189°
2026-05-07 19:13 40.79665 -4.22401 28135 ft 468 kts 189°
2026-05-07 19:13 40.76413 -4.22598 27663 ft 468 kts 188°
2026-05-07 19:14 40.73201 -4.22790 27200 ft 468 kts 188°
2026-05-07 19:14 40.69949 -4.22984 26748 ft 468 kts 188°
2026-05-07 19:14 40.66699 -4.23178 26284 ft 467 kts 188°
2026-05-07 19:14 40.63448 -4.23369 25845 ft 467 kts 187°
2026-05-07 19:15 40.60200 -4.23560 25408 ft 467 kts 187°
2026-05-07 19:15 40.56947 -4.23754 24982 ft 467 kts 187°
2026-05-07 19:15 40.53697 -4.23905 24547 ft 469 kts 182°
2026-05-07 19:15 40.50470 -4.23179 24087 ft 475 kts 163°
2026-05-07 19:16 40.47438 -4.21525 23715 ft 468 kts 159°
2026-05-07 19:16 40.44452 -4.19888 23271 ft 463 kts 160°
2026-05-07 19:16 40.41466 -4.18325 22770 ft 459 kts 161°
2026-05-07 19:16 40.38502 -4.16796 22256 ft 456 kts 159°
2026-05-07 19:17 40.35804 -4.14606 21749 ft 459 kts 139°
2026-05-07 19:17 40.33736 -4.11441 21310 ft 457 kts 123°
2026-05-07 19:17 40.32399 -4.07689 20857 ft 454 kts 109°
2026-05-07 19:17 40.31438 -4.03766 20421 ft 450 kts 108°
2026-05-07 19:18 40.30524 -3.99927 20018 ft 443 kts 108°
2026-05-07 19:18 40.29613 -3.96135 19932 ft 428 kts 108°
2026-05-07 19:18 40.28723 -3.92499 19916 ft 409 kts 108°
2026-05-07 19:18 40.27866 -3.89054 19728 ft 397 kts 108°
2026-05-07 19:19 40.27014 -3.85661 19401 ft 390 kts 109°
2026-05-07 19:19 40.26170 -3.82316 19087 ft 384 kts 109°
2026-05-07 19:19 40.25339 -3.79030 18780 ft 377 kts 109°
2026-05-07 19:19 40.24520 -3.75805 18473 ft 371 kts 109°
2026-05-07 19:20 40.23573 -3.72699 18151 ft 364 kts 123°
2026-05-07 19:20 40.22541 -3.70949 17911 ft 358 kts 137°
2026-05-07 19:20 40.20566 -3.69130 17578 ft 349 kts 157°
2026-05-07 19:20 40.18266 -3.68270 17228 ft 341 kts 176°
2026-05-07 19:21 40.15937 -3.68414 16884 ft 333 kts 194°
2026-05-07 19:21 40.13810 -3.69490 16544 ft 326 kts 212°
2026-05-07 19:21 40.12079 -3.71344 16209 ft 321 kts 230°
2026-05-07 19:21 40.10888 -3.73771 15877 ft 316 kts 247°
2026-05-07 19:22 40.10296 -3.76515 15549 ft 314 kts 262°
2026-05-07 19:22 40.10241 -3.79352 15218 ft 312 kts 278°
2026-05-07 19:22 40.10762 -3.82085 14978 ft 307 kts 286°
2026-05-07 19:22 40.11413 -3.84690 14918 ft 296 kts 287°
2026-05-07 19:23 40.12059 -3.87202 14910 ft 288 kts 287°
2026-05-07 19:23 40.12692 -3.89678 14913 ft 288 kts 287°
2026-05-07 19:23 40.13321 -3.92175 14923 ft 291 kts 287°
2026-05-07 19:23 40.13955 -3.94713 14928 ft 294 kts 287°
2026-05-07 19:24 40.14585 -3.97252 14922 ft 293 kts 287°
2026-05-07 19:24 40.15209 -3.99779 14914 ft 292 kts 287°
2026-05-07 19:24 40.15832 -4.02304 14915 ft 291 kts 287°
2026-05-07 19:24 40.16452 -4.04822 14921 ft 291 kts 287°
2026-05-07 19:25 40.17134 -4.07270 14916 ft 291 kts 297°
2026-05-07 19:25 40.18382 -4.09352 14920 ft 293 kts 316°
2026-05-07 19:25 40.20036 -4.10933 14923 ft 296 kts 330°
2026-05-07 19:25 40.21946 -4.11959 14921 ft 299 kts 344°
2026-05-07 19:26 40.24020 -4.12285 14924 ft 303 kts
2026-05-07 19:26 40.26093 -4.11785 14927 ft 306 kts 19°
2026-05-07 19:26 40.27965 -4.10454 14931 ft 308 kts 38°
2026-05-07 19:26 40.29441 -4.08421 14935 ft 309 kts 56°
2026-05-07 19:27 40.30377 -4.05893 14935 ft 310 kts 74°
2026-05-07 19:27 40.30771 -4.03128 14938 ft 310 kts 88°
2026-05-07 19:27 40.30588 -4.00330 14927 ft 309 kts 105°
2026-05-07 19:27 40.29984 -3.97631 14929 ft 308 kts 109°
2026-05-07 19:28 40.29314 -3.94966 14922 ft 309 kts 110°
2026-05-07 19:28 40.28632 -3.92302 14924 ft 308 kts 110°
2026-05-07 19:28 40.27964 -3.89669 14922 ft 308 kts 110°
2026-05-07 19:28 40.27295 -3.87004 14920 ft 308 kts 109°
2026-05-07 19:29 40.26633 -3.84343 14919 ft 307 kts 109°
2026-05-07 19:29 40.25974 -3.81683 14920 ft 307 kts 109°
2026-05-07 19:29 40.25316 -3.79028 14923 ft 306 kts 109°
2026-05-07 19:29 40.24656 -3.76374 14921 ft 305 kts 109°
2026-05-07 19:30 40.23966 -3.73751 14935 ft 304 kts 117°
2026-05-07 19:30 40.22694 -3.71601 14943 ft 298 kts 144°
2026-05-07 19:30 40.20866 -3.70412 14939 ft 294 kts 168°
2026-05-07 19:30 40.18847 -3.70271 14944 ft 291 kts 192°
2026-05-07 19:31 40.16965 -3.71157 14941 ft 289 kts 213°
2026-05-07 19:31 40.15501 -3.72934 14951 ft 289 kts 236°
2026-05-07 19:31 40.14695 -3.75324 14930 ft 290 kts 258°
2026-05-07 19:31 40.14612 -3.77955 14915 ft 293 kts 279°
2026-05-07 19:32 40.15148 -3.80530 14924 ft 295 kts 287°
2026-05-07 19:32 40.15794 -3.83085 14927 ft 296 kts 287°
2026-05-07 19:32 40.16451 -3.85636 14912 ft 297 kts 288°
2026-05-07 19:32 40.17104 -3.88194 14914 ft 297 kts 287°
2026-05-07 19:33 40.17746 -3.90751 14915 ft 296 kts 287°
2026-05-07 19:33 40.18398 -3.93303 14917 ft 296 kts 291°
2026-05-07 19:33 40.19571 -3.95495 14552 ft 300 kts 321°
2026-05-07 19:33 40.21460 -3.96644 14110 ft 304 kts 348°
2026-05-07 19:34 40.23572 -3.96686 13743 ft 305 kts 10°
2026-05-07 19:34 40.25539 -3.95702 13344 ft 304 kts 33°
2026-05-07 19:34 40.27013 -3.93822 12941 ft 300 kts 58°
2026-05-07 19:34 40.27757 -3.91312 12548 ft 296 kts 83°
2026-05-07 19:35 40.27711 -3.88651 12221 ft 295 kts 105°
2026-05-07 19:35 40.27117 -3.86041 11976 ft 304 kts 110°
2026-05-07 19:35 40.26435 -3.83397 11702 ft 309 kts 110°
2026-05-07 19:35 40.25753 -3.80737 11416 ft 307 kts 110°
2026-05-07 19:36 40.25108 -3.78180 11169 ft 309 kts 110°
2026-05-07 19:36 40.24436 -3.75496 10888 ft 312 kts 110°
2026-05-07 19:36 40.23760 -3.72800 10621 ft 310 kts 110°
2026-05-07 19:36 40.23085 -3.70148 10349 ft 305 kts 110°
2026-05-07 19:37 40.22417 -3.67533 10086 ft 301 kts 110°
2026-05-07 19:37 40.21759 -3.64950 9809 ft 297 kts 110°
2026-05-07 19:37 40.21108 -3.62401 9519 ft 294 kts 110°
2026-05-07 19:37 40.20464 -3.59871 9223 ft 291 kts 110°
2026-05-07 19:38 40.19828 -3.57374 8928 ft 288 kts 110°
2026-05-07 19:38 40.19195 -3.54899 8641 ft 286 kts 110°
2026-05-07 19:38 40.18566 -3.52445 8358 ft 283 kts 110°
2026-05-07 19:38 40.17943 -3.50017 8068 ft 281 kts 110°
2026-05-07 19:39 40.17554 -3.47532 7762 ft 282 kts 89°
2026-05-07 19:39 40.18083 -3.45091 7520 ft 281 kts 60°
2026-05-07 19:39 40.19296 -3.43160 7459 ft 271 kts 44°
2026-05-07 19:39 40.20678 -3.41546 7378 ft 262 kts 39°
2026-05-07 19:40 40.22168 -3.40304 7292 ft 253 kts 29°
2026-05-07 19:40 40.23705 -3.39221 7106 ft 250 kts 28°
2026-05-07 19:40 40.25318 -3.38377 6996 ft 251 kts
2026-05-07 19:40 40.27041 -3.38474 7001 ft 247 kts 352°
2026-05-07 19:41 40.28750 -3.38784 6997 ft 248 kts 352°
2026-05-07 19:41 40.30437 -3.39286 6980 ft 250 kts 333°
2026-05-07 19:41 40.31825 -3.40589 7000 ft 242 kts 319°
2026-05-07 19:41 40.33120 -3.41928 6978 ft 232 kts 322°
2026-05-07 19:42 40.34399 -3.43243 6503 ft 238 kts 320°
2026-05-07 19:42 40.35695 -3.44650 5975 ft 242 kts 319°
2026-05-07 19:42 40.36976 -3.46032 5482 ft 233 kts 322°
2026-05-07 19:42 40.38267 -3.47313 4616 ft 240 kts 323°
2026-05-07 19:43 40.39602 -3.48588 3989 ft 233 kts 326°
2026-05-07 19:43 40.40869 -3.49831 3408 ft 226 kts 320°
2026-05-07 19:43 40.42057 -3.51086 3076 ft 208 kts 325°
2026-05-07 19:43 40.43152 -3.52189 2736 ft 189 kts 324°
2026-05-07 19:44 40.44127 -3.53189 2502 ft 169 kts 325°
2026-05-07 19:44 40.45015 -3.54076 2258 ft 155 kts 325°
2026-05-07 19:44 40.45863 -3.54931 2072 ft 156 kts 324°
2026-05-07 19:44 40.46729 -3.55809 1968 ft 154 kts 324°
2026-05-07 19:45 40.47468 -3.56561 1992 ft 106 kts 322°
2026-05-07 19:45 40.47884 -3.56985 1996 ft 62 kts 322°
2026-05-07 19:45 40.48008 -3.57178 2004 ft 14 kts 230°
2026-05-07 19:45 40.47952 -3.57282 2002 ft 14 kts 235°
2026-05-07 19:46 40.47884 -3.57357 2003 ft 13 kts 177°
2026-05-07 19:46 40.47806 -3.57295 2001 ft 13 kts 141°
2026-05-07 19:46 40.47730 -3.57218 1999 ft 14 kts 143°
2026-05-07 19:46 40.47644 -3.57132 1996 ft 17 kts 142°
2026-05-07 19:47 40.47544 -3.57030 1992 ft 20 kts 141°
2026-05-07 19:47 40.47432 -3.56915 1989 ft 21 kts 142°
2026-05-07 19:47 40.47314 -3.56794 1986 ft 21 kts 142°
2026-05-07 19:47 40.47198 -3.56677 1981 ft 21 kts 141°
2026-05-07 19:48 40.47075 -3.56572 1979 ft 21 kts 160°
2026-05-07 19:48 40.46936 -3.56549 1977 ft 19 kts 183°
2026-05-07 19:48 40.46829 -3.56559 1976 ft 13 kts 196°
2026-05-07 19:48 40.46805 -3.56653 1973 ft 12 kts 261°
2026-05-07 19:49 40.46742 -3.56698 1973 ft 11 kts 183°
2026-05-07 19:49 40.46653 -3.56705 1972 ft 14 kts 185°
2026-05-07 19:49 40.46552 -3.56712 1974 ft 15 kts 183°
2026-05-07 19:49 40.46499 -3.56737 1976 ft 6 kts 249°
2026-05-07 19:50 40.46498 -3.56793 1971 ft 5 kts 271°
2026-05-07 19:50 40.46499 -3.56806 1971 ft 0 kts 272°